| time (UTC) | temp C | wind direction | speed KPH | gust KPH | rain 1hr cm | rain 24hr cm | rain mn cm | humidity % | barometer mb |
| 20260510000200 | 12 | 233 | 4.8 | 11.3 | 1.80 | 0.91 | 0.91 | 92 | 979.7 |
| 20260509235656 | 13 | 301 | 12.9 | 16.1 | 0.61 | 0.71 | 0.71 | 87 | 979.8 |
| 20260509235152 | 17 | 272 | 9.7 | 20.9 | 0.00 | 0.61 | 0.61 | 69 | 979.2 |
| 20260509234649 | 17 | 273 | 1.6 | 3.2 | 0.00 | 0.61 | 0.61 | 67 | 977.8 |
| 20260509234146 | 17 | 251 | 3.2 | 3.2 | 0.00 | 0.61 | 0.61 | 67 | 977.5 |
| 20260509233644 | 17 | 269 | 1.6 | 1.6 | 0.00 | 0.61 | 0.61 | 66 | 977.3 |
| 20260509233141 | 17 | 280 | 0.0 | 0.0 | 0.00 | 0.61 | 0.61 | 66 | 977.0 |
| 20260509232637 | 17 | 275 | 0.0 | 1.6 | 0.00 | 0.61 | 0.61 | 65 | 976.7 |
| 20260509232134 | 17 | 274 | 0.0 | 3.2 | 0.00 | 0.61 | 0.61 | 65 | 976.6 |
| 20260509231631 | 17 | 279 | 1.6 | 4.8 | 0.00 | 0.61 | 0.61 | 65 | 976.7 |
| 20260509231128 | 18 | 251 | 1.6 | 4.8 | 0.00 | 0.61 | 0.61 | 65 | 976.5 |
| 20260509230625 | 18 | 30 | 4.8 | 4.8 | 0.00 | 0.61 | 0.61 | 63 | 976.6 |
| 20260509230122 | 18 | 259 | 3.2 | 3.2 | 0.00 | 0.61 | 0.61 | 64 | 976.6 |
| 20260509225618 | 18 | 239 | 1.6 | 3.2 | 0.00 | 0.61 | 0.61 | 64 | 976.6 |
| 20260509225113 | 18 | 264 | 3.2 | 11.3 | 0.00 | 0.61 | 0.61 | 63 | 976.5 |
| 20260509224609 | 18 | 269 | 1.6 | 11.3 | 0.00 | 0.61 | 0.61 | 62 | 976.7 |
| 20260509224106 | 18 | 344 | 3.2 | 16.1 | 0.00 | 0.61 | 0.61 | 62 | 976.5 |
| 20260509223603 | 18 | 227 | 4.8 | 12.9 | 0.00 | 0.61 | 0.61 | 63 | 976.2 |
| 20260509223101 | 18 | 263 | 3.2 | 3.2 | 0.00 | 0.61 | 0.61 | 63 | 976.3 |
| 20260509222556 | 18 | 239 | 4.8 | 12.9 | 0.00 | 0.61 | 0.61 | 62 | 976.3 |
| 20260509222053 | 18 | 248 | 4.8 | 12.9 | 0.00 | 0.61 | 0.61 | 63 | 975.9 |
| 20260509221548 | 18 | 241 | 6.4 | 16.1 | 0.00 | 0.61 | 0.61 | 61 | 976.5 |
| 20260509221045 | 18 | 260 | 8.0 | 16.1 | 0.00 | 0.61 | 0.61 | 62 | 976.4 |
| 20260509220541 | 19 | 165 | 3.2 | 9.7 | 0.00 | 0.61 | 0.61 | 62 | 976.3 |
| 20260509220037 | 20 | 223 | 3.2 | 9.7 | 0.00 | 0.61 | 0.61 | 63 | 976.2 |
| 20260509215532 | 19 | 258 | 1.6 | 9.7 | 0.00 | 0.61 | 0.61 | 61 | 976.3 |
| 20260509215030 | 19 | 173 | 4.8 | 8.0 | 0.00 | 0.61 | 0.61 | 63 | 976.6 |
| 20260509214527 | 19 | 277 | 8.0 | 11.3 | 0.00 | 0.61 | 0.61 | 61 | 976.4 |
| 20260509214024 | 19 | 258 | 3.2 | 12.9 | 0.00 | 0.61 | 0.61 | 62 | 976.3 |
| 20260509213520 | 19 | 221 | 6.4 | 11.3 | 0.00 | 0.61 | 0.61 | 61 | 976.5 |
| 20260509213017 | 19 | 118 | 9.7 | 12.9 | 0.00 | 0.61 | 0.61 | 61 | 976.4 |
| 20260509212514 | 19 | 280 | 3.2 | 12.9 | 0.00 | 0.61 | 0.61 | 61 | 976.4 |
| 20260509212011 | 19 | 240 | 1.6 | 9.7 | 0.00 | 0.61 | 0.61 | 61 | 976.5 |
| 20260509211506 | 18 | 261 | 3.2 | 8.0 | 0.00 | 0.61 | 0.61 | 62 | 976.5 |
| 20260509211003 | 19 | 258 | 3.2 | 4.8 | 0.00 | 0.61 | 0.61 | 61 | 976.3 |
| 20260509210500 | 20 | 281 | 1.6 | 4.8 | 0.00 | 0.61 | 0.61 | 60 | 976.5 |
| 20260509205956 | 20 | 21 | 11.3 | 17.7 | 0.00 | 0.61 | 0.61 | 61 | 976.6 |
| 20260509205450 | 19 | 253 | 0.0 | 4.8 | 0.00 | 0.61 | 0.61 | 62 | 976.7 |
| 20260509204946 | 19 | 217 | 8.0 | 14.5 | 0.00 | 0.61 | 0.61 | 60 | 976.7 |
| 20260509204443 | 20 | 319 | 8.0 | 16.1 | 0.00 | 0.61 | 0.61 | 59 | 977.0 |
| 20260509203940 | 19 | 271 | 1.6 | 8.0 | 0.00 | 0.61 | 0.61 | 61 | 977.0 |
| 20260509203435 | 18 | 53 | 8.0 | 14.5 | 0.00 | 0.61 | 0.61 | 62 | 977.1 |
| 20260509202933 | 18 | 256 | 4.8 | 12.9 | 0.00 | 0.61 | 0.61 | 63 | 977.3 |
| 20260509202429 | 18 | 280 | 0.0 | 4.8 | 0.00 | 0.61 | 0.61 | 63 | 977.3 |
| 20260509201924 | 18 | 103 | 6.4 | 11.3 | 0.00 | 0.61 | 0.61 | 64 | 977.5 |
| 20260509201419 | 18 | 243 | 6.4 | 12.9 | 0.00 | 0.61 | 0.61 | 62 | 977.4 |
| 20260509200917 | 19 | 175 | 8.0 | 14.5 | 0.00 | 0.61 | 0.61 | 62 | 977.5 |
| 20260509200416 | 20 | 251 | 6.4 | 9.7 | 0.00 | 0.61 | 0.61 | 60 | 977.3 |
| 20260509195914 | 19 | 268 | 3.2 | 8.0 | 0.00 | 0.61 | 0.61 | 62 | 977.2 |
| 20260509195409 | 19 | 290 | 1.6 | 12.9 | 0.00 | 0.61 | 0.61 | 63 | 977.9 |
| 20260509194908 | 19 | 216 | 4.8 | 9.7 | 0.00 | 0.61 | 0.61 | 63 | 978.0 |
| 20260509194405 | 19 | 203 | 3.2 | 9.7 | 0.00 | 0.61 | 0.61 | 65 | 977.9 |
| 20260509193902 | 19 | 294 | 1.6 | 9.7 | 0.00 | 0.61 | 0.61 | 65 | 977.8 |
| 20260509193402 | 18 | 253 | 4.8 | 12.9 | 0.00 | 0.61 | 0.61 | 63 | 977.8 |
| 20260509192858 | 20 | 218 | 3.2 | 4.8 | 0.00 | 0.61 | 0.61 | 68 | 977.9 |
| 20260509192354 | 19 | 318 | 3.2 | 9.7 | 0.00 | 0.61 | 0.61 | 63 | 977.7 |
| 20260509191850 | 18 | 258 | 1.6 | 9.7 | 0.00 | 0.61 | 0.61 | 64 | 977.8 |
| 20260509191345 | 18 | 102 | 6.4 | 9.7 | 0.00 | 0.61 | 0.61 | 66 | 978.0 |
| 20260509190842 | 18 | 261 | 1.6 | 17.7 | 0.00 | 0.61 | 0.61 | 66 | 978.1 |
| 20260509190339 | 18 | 268 | 4.8 | 11.3 | 0.00 | 0.61 | 0.61 | 69 | 978.1 |
| 20260509185836 | 18 | 220 | 8.0 | 12.9 | 0.00 | 0.61 | 0.61 | 65 | 978.1 |
| 20260509185333 | 18 | 289 | 6.4 | 9.7 | 0.00 | 0.61 | 0.61 | 67 | 978.2 |
| 20260509184830 | 17 | 275 | 4.8 | 11.3 | 0.00 | 0.61 | 0.61 | 68 | 978.2 |
| 20260509184327 | 17 | 178 | 8.0 | 12.9 | 0.00 | 0.61 | 0.61 | 70 | 978.4 |
| 20260509183823 | 17 | 108 | 11.3 | 14.5 | 0.00 | 0.61 | 0.61 | 70 | 978.3 |
| 20260509183319 | 18 | 146 | 4.8 | 9.7 | 0.00 | 0.61 | 0.61 | 68 | 978.3 |
| 20260509182815 | 17 | 281 | 1.6 | 4.8 | 0.00 | 0.61 | 0.61 | 70 | 978.4 |
| 20260509182312 | 17 | 177 | 4.8 | 11.3 | 0.00 | 0.61 | 0.61 | 72 | 978.3 |
| 20260509181809 | 17 | 248 | 1.6 | 9.7 | 0.00 | 0.61 | 0.61 | 73 | 978.1 |
| 20260509181307 | 16 | 188 | 6.4 | 16.1 | 0.00 | 0.61 | 0.61 | 73 | 978.3 |
| 20260509180804 | 16 | 236 | 6.4 | 9.7 | 0.00 | 0.61 | 0.61 | 73 | 978.4 |
| 20260509180300 | 16 | 305 | 1.6 | 8.0 | 0.00 | 0.61 | 0.61 | 76 | 978.6 |
| 20260509175756 | 17 | 77 | 6.4 | 11.3 | 0.00 | 0.61 | 0.61 | 74 | 978.3 |
| 20260509175253 | 17 | 288 | 3.2 | 12.9 | 0.00 | 0.61 | 0.61 | 74 | 978.4 |
| 20260509174749 | 17 | 276 | 0.0 | 8.0 | 0.00 | 0.61 | 0.61 | 73 | 978.5 |
| 20260509174244 | 17 | 290 | 4.8 | 9.7 | 0.00 | 0.61 | 0.61 | 73 | 978.5 |
| 20260509173740 | 17 | 273 | 0.0 | 11.3 | 0.00 | 0.61 | 0.61 | 74 | 978.4 |
| 20260509173236 | 17 | 285 | 4.8 | 8.0 | 0.00 | 0.61 | 0.61 | 75 | 978.6 |
| 20260509172733 | 16 | 264 | 6.4 | 9.7 | 0.00 | 0.61 | 0.61 | 77 | 978.6 |
| 20260509172229 | 17 | 217 | 6.4 | 9.7 | 0.00 | 0.61 | 0.61 | 76 | 978.9 |
| 20260509171724 | 16 | 280 | 0.0 | 3.2 | 0.00 | 0.61 | 0.61 | 78 | 978.8 |
| 20260509171221 | 15 | 278 | 1.6 | 4.8 | 0.00 | 0.61 | 0.61 | 81 | 978.6 |
| 20260509170718 | 15 | 265 | 1.6 | 4.8 | 0.00 | 0.61 | 0.61 | 80 | 978.8 |
| 20260509170214 | 15 | 256 | 1.6 | 9.7 | 0.00 | 0.61 | 0.61 | 83 | 978.7 |
| 20260509165713 | 15 | 198 | 6.4 | 11.3 | 0.00 | 0.61 | 0.61 | 81 | 978.8 |
| 20260509165208 | 15 | 271 | 4.8 | 4.8 | 0.00 | 0.61 | 0.61 | 81 | 978.9 |
| 20260509164704 | 15 | 271 | 1.6 | 4.8 | 0.00 | 0.61 | 0.61 | 83 | 979.0 |
| 20260509164200 | 15 | 254 | 3.2 | 3.2 | 0.00 | 0.61 | 0.61 | 84 | 979.0 |
| 20260509163657 | 14 | 274 | 0.0 | 3.2 | 0.00 | 0.61 | 0.61 | 85 | 979.1 |
| 20260509163154 | 14 | 145 | 4.8 | 8.0 | 0.00 | 0.61 | 0.61 | 86 | 979.1 |
| 20260509162651 | 14 | 277 | 1.6 | 4.8 | 0.00 | 0.61 | 0.61 | 85 | 978.8 |
| 20260509162147 | 13 | 265 | 0.0 | 1.6 | 0.00 | 0.61 | 0.61 | 87 | 978.9 |
| 20260509161643 | 13 | 269 | 3.2 | 3.2 | 0.00 | 0.61 | 0.61 | 88 | 978.8 |
| 20260509161138 | 13 | 268 | 1.6 | 3.2 | 0.00 | 0.61 | 0.61 | 89 | 979.1 |
| 20260509160634 | 12 | 247 | 3.2 | 11.3 | 0.00 | 0.61 | 0.61 | 88 | 979.1 |
| 20260509160130 | 13 | 269 | 1.6 | 9.7 | 0.00 | 0.61 | 0.61 | 89 | 979.0 |
| 20260509155626 | 13 | 274 | 1.6 | 8.0 | 0.00 | 0.61 | 0.61 | 90 | 978.8 |
| 20260509155122 | 13 | 272 | 1.6 | 3.2 | 0.00 | 0.61 | 0.61 | 89 | 979.1 |
| 20260509154618 | 12 | 286 | 3.2 | 3.2 | 0.00 | 0.61 | 0.61 | 90 | 979.2 |
| 20260509154116 | 13 | 267 | 3.2 | 4.8 | 0.00 | 0.61 | 0.61 | 90 | 979.0 |
| 20260509153613 | 12 | 277 | 3.2 | 4.8 | 0.00 | 0.61 | 0.61 | 90 | 979.1 |
| 20260509153109 | 12 | 267 | 1.6 | 4.8 | 0.00 | 0.61 | 0.61 | 91 | 979.0 |
| 20260509152605 | 12 | 277 | 1.6 | 4.8 | 0.00 | 0.61 | 0.61 | 91 | 979.1 |
| 20260509152103 | 12 | 267 | 3.2 | 4.8 | 0.00 | 0.61 | 0.61 | 90 | 978.9 |
| 20260509151559 | 12 | 270 | 1.6 | 4.8 | 0.00 | 0.61 | 0.61 | 91 | 978.9 |
| 20260509151057 | 12 | 273 | 1.6 | 9.7 | 0.00 | 0.61 | 0.61 | 91 | 979.1 |
| 20260509150554 | 12 | 275 | 0.0 | 3.2 | 0.00 | 0.61 | 0.61 | 91 | 979.1 |
| 20260509150053 | 12 | 274 | 0.0 | 3.2 | 0.00 | 0.61 | 0.61 | 91 | 978.9 |
| 20260509145548 | 12 | 272 | 1.6 | 4.8 | 0.00 | 0.61 | 0.61 | 93 | 979.1 |
| 20260509145043 | 12 | 275 | 3.2 | 4.8 | 0.00 | 0.61 | 0.61 | 92 | 979.0 |
| 20260509144540 | 12 | 244 | 4.8 | 11.3 | 0.00 | 0.61 | 0.61 | 92 | 979.1 |
| 20260509144037 | 11 | 299 | 1.6 | 1.6 | 0.00 | 0.61 | 0.61 | 93 | 979.0 |
| 20260509143535 | 11 | 345 | 4.8 | 4.8 | 0.00 | 0.61 | 0.61 | 93 | 979.0 |
| 20260509143032 | 11 | 272 | 0.0 | 3.2 | 0.00 | 0.61 | 0.61 | 94 | 979.1 |
| 20260509142527 | 11 | 27 | 6.4 | 8.0 | 0.00 | 0.61 | 0.61 | 93 | 978.8 |
| 20260509142023 | 11 | 268 | 1.6 | 4.8 | 0.00 | 0.61 | 0.61 | 94 | 978.9 |
| 20260509141520 | 11 | 103 | 8.0 | 9.7 | 0.00 | 0.61 | 0.61 | 94 | 978.9 |
| 20260509141017 | 11 | 275 | 1.6 | 4.8 | 0.00 | 0.61 | 0.61 | 94 | 978.7 |
| 20260509140514 | 11 | 272 | 3.2 | 8.0 | 0.00 | 0.61 | 0.61 | 94 | 979.2 |
| 20260509140012 | 11 | 241 | 1.6 | 1.6 | 0.00 | 0.61 | 0.61 | 95 | 979.2 |
| 20260509135508 | 11 | 282 | 0.0 | 3.2 | 0.00 | 0.61 | 0.61 | 96 | 979.1 |
| 20260509135006 | 11 | 298 | 0.0 | 3.2 | 0.00 | 0.61 | 0.61 | 97 | 979.2 |
| 20260509134503 | 11 | 273 | 1.6 | 3.2 | 0.00 | 0.61 | 0.61 | 97 | 979.0 |
| 20260509134001 | 11 | 265 | 1.6 | 3.2 | 0.00 | 0.61 | 0.61 | 98 | 979.1 |
| 20260509133457 | 10 | 282 | 0.0 | 3.2 | 0.00 | 0.61 | 0.61 | 98 | 979.1 |
| 20260509132955 | 10 | 344 | 4.8 | 4.8 | 0.00 | 0.61 | 0.61 | 98 | 979.1 |
| 20260509132453 | 10 | 274 | 0.0 | 1.6 | 0.00 | 0.61 | 0.61 | 98 | 979.1 |
| 20260509131950 | 10 | 278 | 0.0 | 0.0 | 0.00 | 0.61 | 0.61 | 99 | 979.5 |
| 20260509131447 | 10 | 277 | 0.0 | 1.6 | 0.00 | 0.61 | 0.61 | 99 | 979.5 |
| 20260509130943 | 10 | 277 | 0.0 | 1.6 | 0.00 | 0.61 | 0.61 | 99 | 979.3 |
| 20260509130439 | 10 | 281 | 0.0 | 0.0 | 0.00 | 0.61 | 0.61 | 99 | 979.5 |
| 20260509125936 | 10 | 280 | 0.0 | 0.0 | 0.00 | 0.61 | 0.61 | 99 | 979.4 |
| 20260509125433 | 10 | 278 | 0.0 | 0.0 | 0.00 | 0.61 | 0.61 | 99 | 979.2 |
| 20260509124929 | 10 | 281 | 0.0 | 0.0 | 0.00 | 0.61 | 0.61 | 99 | 979.3 |
| 20260509124426 | 10 | 284 | 0.0 | 0.0 | 0.00 | 0.61 | 0.61 | 99 | 979.3 |
| 20260509123923 | 10 | 269 | 1.6 | 3.2 | 0.00 | 0.61 | 0.61 | 99 | 979.3 |
| 20260509123421 | 10 | 282 | 0.0 | 4.8 | 0.00 | 0.61 | 0.61 | 99 | 979.2 |
| 20260509122916 | 10 | 287 | 0.0 | 0.0 | 0.00 | 0.61 | 0.61 | 99 | 979.3 |
| 20260509122413 | 10 | 281 | 0.0 | 0.0 | 0.00 | 0.61 | 0.61 | 99 | 979.3 |
| 20260509121910 | 10 | 287 | 0.0 | 1.6 | 0.00 | 0.61 | 0.61 | 99 | 979.4 |
| 20260509121407 | 10 | 277 | 0.0 | 0.0 | 0.00 | 0.61 | 0.61 | 99 | 979.6 |
| 20260509120905 | 10 | 302 | 1.6 | 4.8 | 0.00 | 0.61 | 0.61 | 99 | 979.5 |
| 20260509120402 | 10 | 285 | 0.0 | 1.6 | 0.00 | 0.61 | 0.61 | 99 | 979.6 |
| 20260509115901 | 10 | 276 | 0.0 | 0.0 | 0.00 | 0.61 | 0.61 | 99 | 979.7 |
| 20260509115357 | 10 | 276 | 0.0 | 0.0 | 0.00 | 0.61 | 0.61 | 99 | 979.3 |
| 20260509114855 | 9 | 281 | 0.0 | 0.0 | 0.00 | 0.61 | 0.61 | 99 | 979.5 |
| 20260509114354 | 9 | 281 | 0.0 | 0.0 | 0.00 | 0.61 | 0.61 | 99 | 979.7 |
| 20260509113852 | 9 | 278 | 0.0 | 0.0 | 0.00 | 0.61 | 0.61 | 99 | 979.6 |
| 20260509113349 | 9 | 284 | 0.0 | 0.0 | 0.00 | 0.61 | 0.61 | 99 | 979.4 |
| 20260509112846 | 9 | 282 | 0.0 | 0.0 | 0.00 | 0.61 | 0.61 | 99 | 979.5 |
| 20260509112343 | 9 | 282 | 0.0 | 0.0 | 0.00 | 0.61 | 0.61 | 99 | 979.6 |
| 20260509111841 | 9 | 281 | 0.0 | 0.0 | 0.18 | 0.61 | 0.61 | 99 | 979.3 |
| 20260509111337 | 9 | 281 | 0.0 | 0.0 | 0.18 | 0.61 | 0.61 | 99 | 979.2 |
| 20260509110835 | 9 | 281 | 0.0 | 0.0 | 0.00 | 0.58 | 0.58 | 99 | 979.1 |
| 20260509110331 | 9 | 278 | 0.0 | 0.0 | 0.00 | 0.58 | 0.58 | 99 | 979.3 |
| 20260509105829 | 9 | 277 | 0.0 | 0.0 | 0.00 | 0.58 | 0.58 | 99 | 979.3 |
| 20260509105327 | 9 | 273 | 0.0 | 0.0 | 0.00 | 0.58 | 0.58 | 99 | 979.5 |
| 20260509104823 | 9 | 285 | 0.0 | 0.0 | 0.00 | 0.58 | 0.58 | 99 | 979.4 |
| 20260509104320 | 9 | 281 | 0.0 | 0.0 | 0.00 | 0.58 | 0.58 | 99 | 979.6 |
| 20260509103818 | 8 | 281 | 0.0 | 0.0 | 0.00 | 0.58 | 0.58 | 99 | 979.6 |
| 20260509103315 | 8 | 283 | 0.0 | 0.0 | 0.00 | 0.58 | 0.58 | 99 | 979.5 |
| 20260509102814 | 9 | 281 | 0.0 | 0.0 | 0.00 | 0.58 | 0.58 | 99 | 979.5 |
| 20260509102310 | 9 | 281 | 0.0 | 0.0 | 0.00 | 0.58 | 0.58 | 99 | 979.4 |
| 20260509101806 | 9 | 281 | 0.0 | 0.0 | 0.00 | 0.58 | 0.58 | 99 | 979.6 |
| 20260509101303 | 8 | 280 | 0.0 | 0.0 | 0.00 | 0.58 | 0.58 | 99 | 979.4 |
| 20260509100801 | 8 | 281 | 0.0 | 0.0 | 0.00 | 0.58 | 0.58 | 99 | 979.6 |
| 20260509100258 | 8 | 278 | 0.0 | 0.0 | 0.00 | 0.58 | 0.58 | 99 | 979.6 |
| 20260509095754 | 8 | 275 | 0.0 | 0.0 | 0.18 | 0.58 | 0.58 | 99 | 979.7 |
| 20260509095251 | 8 | 281 | 0.0 | 0.0 | 0.18 | 0.58 | 0.58 | 99 | 979.5 |
| 20260509094748 | 8 | 281 | 0.0 | 0.0 | 0.00 | 0.56 | 0.56 | 99 | 979.5 |
| 20260509094245 | 8 | 277 | 0.0 | 0.0 | 0.13 | 0.56 | 0.56 | 99 | 980.0 |
| 20260509093743 | 8 | 277 | 0.0 | 0.0 | 0.30 | 0.56 | 0.56 | 99 | 979.7 |
| 20260509093240 | 8 | 277 | 0.0 | 0.0 | 0.30 | 0.53 | 0.53 | 99 | 979.5 |
| 20260509092738 | 8 | 276 | 0.0 | 0.0 | 0.13 | 0.51 | 0.51 | 99 | 979.6 |
| 20260509092236 | 8 | 278 | 0.0 | 0.0 | 0.18 | 0.48 | 0.48 | 99 | 979.7 |
| 20260509091734 | 8 | 278 | 0.0 | 0.0 | 0.30 | 0.48 | 0.48 | 99 | 979.9 |
| 20260509091229 | 8 | 278 | 0.0 | 0.0 | 0.30 | 0.46 | 0.46 | 99 | 979.8 |
| 20260509090727 | 8 | 277 | 0.0 | 0.0 | 0.18 | 0.43 | 0.43 | 99 | 979.8 |
| 20260509090224 | 8 | 278 | 0.0 | 0.0 | 0.00 | 0.41 | 0.41 | 99 | 979.8 |
| 20260509085722 | 8 | 277 | 0.0 | 0.0 | 0.00 | 0.41 | 0.41 | 99 | 979.9 |
| 20260509085219 | 8 | 278 | 0.0 | 0.0 | 0.00 | 0.41 | 0.41 | 99 | 979.8 |
| 20260509084716 | 8 | 278 | 0.0 | 0.0 | 0.13 | 0.41 | 0.41 | 99 | 979.9 |
| 20260509084212 | 8 | 278 | 0.0 | 0.0 | 0.00 | 0.38 | 0.38 | 99 | 979.9 |
| 20260509083711 | 8 | 281 | 0.0 | 0.0 | 0.00 | 0.38 | 0.38 | 99 | 980.0 |
| 20260509083207 | 8 | 280 | 0.0 | 0.0 | 0.18 | 0.38 | 0.38 | 99 | 979.9 |
| 20260509082704 | 8 | 281 | 0.0 | 0.0 | 0.18 | 0.38 | 0.38 | 99 | 980.0 |
| 20260509082200 | 8 | 281 | 0.0 | 0.0 | 0.13 | 0.36 | 0.36 | 99 | 979.8 |
| 20260509081657 | 8 | 277 | 0.0 | 0.0 | 0.13 | 0.36 | 0.36 | 99 | 980.0 |
| 20260509081154 | 8 | 277 | 0.0 | 0.0 | 0.00 | 0.33 | 0.33 | 99 | 980.0 |
| 20260509080653 | 8 | 280 | 0.0 | 0.0 | 0.18 | 0.33 | 0.33 | 99 | 980.0 |
| 20260509080150 | 8 | 281 | 0.0 | 0.0 | 0.18 | 0.33 | 0.33 | 99 | 979.9 |
| 20260509075648 | 8 | 276 | 0.0 | 1.6 | 0.00 | 0.30 | 0.30 | 99 | 980.1 |
| 20260509075145 | 8 | 279 | 0.0 | 0.0 | 0.00 | 0.30 | 0.30 | 99 | 979.8 |
| 20260509074642 | 8 | 278 | 0.0 | 0.0 | 0.13 | 0.30 | 0.30 | 99 | 979.9 |
| 20260509074139 | 8 | 278 | 0.0 | 0.0 | 0.13 | 0.30 | 0.30 | 99 | 980.0 |
| 20260509073636 | 8 | 282 | 0.0 | 0.0 | 0.18 | 0.28 | 0.28 | 99 | 980.3 |
| 20260509073132 | 8 | 276 | 0.0 | 0.0 | 0.18 | 0.28 | 0.28 | 99 | 979.9 |
| 20260509072629 | 8 | 289 | 0.0 | 0.0 | 0.18 | 0.25 | 0.25 | 99 | 979.9 |
| 20260509072126 | 8 | 282 | 0.0 | 0.0 | 0.18 | 0.25 | 0.25 | 99 | 980.2 |
| 20260509071622 | 8 | 276 | 0.0 | 0.0 | 0.13 | 0.23 | 0.23 | 99 | 980.3 |
| 20260509071120 | 8 | 302 | 1.6 | 1.6 | 0.13 | 0.23 | 0.23 | 99 | 980.2 |
| 20260509070617 | 8 | 279 | 0.0 | 0.0 | 0.18 | 0.20 | 0.20 | 99 | 980.2 |
| 20260509070113 | 8 | 281 | 0.0 | 0.0 | 0.18 | 0.20 | 0.20 | 99 | 980.2 |
| 20260509065608 | 8 | 282 | 0.0 | 0.0 | 0.00 | 0.18 | 0.18 | 99 | 980.1 |
| 20260509065105 | 8 | 280 | 0.0 | 1.6 | 0.13 | 0.18 | 0.18 | 99 | 980.1 |
| 20260509064602 | 8 | 279 | 0.0 | 0.0 | 0.13 | 0.18 | 0.18 | 99 | 980.2 |
| 20260509064101 | 8 | 279 | 0.0 | 1.6 | 0.00 | 0.15 | 0.15 | 99 | 980.4 |
| 20260509063556 | 8 | 284 | 0.0 | 0.0 | 0.18 | 0.15 | 0.15 | 99 | 980.3 |
| 20260509063053 | 8 | 284 | 0.0 | 0.0 | 0.30 | 0.15 | 0.15 | 99 | 980.6 |
| 20260509062550 | 8 | 283 | 0.0 | 0.0 | 0.13 | 0.13 | 0.13 | 99 | 980.6 |
| 20260509062048 | 8 | 283 | 0.0 | 0.0 | 0.00 | 0.10 | 0.10 | 99 | 981.0 |
| 20260509061544 | 8 | 283 | 0.0 | 0.0 | 0.00 | 0.10 | 0.10 | 99 | 981.0 |
| 20260509061042 | 8 | 283 | 0.0 | 0.0 | 0.00 | 0.10 | 0.10 | 99 | 980.9 |
| 20260509060539 | 8 | 284 | 0.0 | 0.0 | 0.00 | 0.10 | 0.10 | 99 | 981.0 |
| 20260509060035 | 8 | 284 | 0.0 | 0.0 | 0.18 | 0.10 | 0.10 | 99 | 980.9 |
| 20260509055530 | 8 | 284 | 0.0 | 0.0 | 0.18 | 0.10 | 0.10 | 99 | 981.1 |
| 20260509055027 | 8 | 284 | 0.0 | 0.0 | 0.00 | 0.08 | 0.08 | 99 | 981.4 |
| 20260509054523 | 8 | 283 | 0.0 | 0.0 | 0.00 | 0.08 | 0.08 | 99 | 981.3 |
| 20260509054022 | 8 | 284 | 0.0 | 0.0 | 0.00 | 0.08 | 0.08 | 99 | 981.2 |
| 20260509053520 | 8 | 283 | 0.0 | 0.0 | 0.00 | 0.08 | 0.08 | 99 | 981.4 |
| 20260509053016 | 8 | 283 | 0.0 | 0.0 | 0.00 | 0.08 | 0.08 | 99 | 981.3 |
| 20260509052514 | 8 | 283 | 0.0 | 0.0 | 0.13 | 0.08 | 0.08 | 99 | 981.6 |
| 20260509052012 | 8 | 283 | 0.0 | 0.0 | 0.13 | 0.08 | 0.08 | 99 | 981.5 |
| 20260509051510 | 8 | 283 | 0.0 | 0.0 | 0.00 | 0.05 | 0.05 | 99 | 981.6 |
| 20260509051007 | 8 | 283 | 0.0 | 0.0 | 0.00 | 0.05 | 0.05 | 99 | 981.6 |
| 20260509050503 | 9 | 283 | 0.0 | 0.0 | 0.00 | 0.05 | 0.05 | 99 | 981.4 |
| 20260509050000 | 8 | 283 | 0.0 | 0.0 | 0.00 | 0.05 | 0.05 | 99 | 981.7 |
| 20260509045457 | 8 | 283 | 0.0 | 0.0 | 0.18 | 0.05 | 0.05 | 99 | 981.8 |
| 20260509044954 | 8 | 283 | 0.0 | 0.0 | 0.18 | 0.05 | 0.05 | 99 | 981.8 |
| 20260509044451 | 8 | 283 | 0.0 | 0.0 | 0.00 | 0.03 | 0.03 | 99 | 981.8 |
| 20260509043948 | 8 | 283 | 0.0 | 0.0 | 0.00 | 0.03 | 0.03 | 99 | 982.0 |
| 20260509043444 | 8 | 283 | 0.0 | 0.0 | 0.13 | 0.03 | 0.03 | 99 | 982.1 |
| 20260509042940 | 8 | 282 | 0.0 | 0.0 | 0.13 | 0.03 | 0.03 | 99 | 981.8 |
| 20260509042437 | 8 | 283 | 0.0 | 0.0 | 0.00 | 0.00 | 0.00 | 99 | 982.0 |
| 20260509041933 | 8 | 282 | 0.0 | 0.0 | 0.00 | 0.00 | 0.00 | 99 | 982.1 |
| 20260509041430 | 8 | 283 | 0.0 | 0.0 | 0.00 | 0.00 | 0.00 | 99 | 982.0 |
| 20260509040928 | 8 | 277 | 0.0 | 0.0 | 0.00 | 0.00 | 0.00 | 99 | 982.2 |
| 20260509040426 | 8 | 282 | 0.0 | 0.0 | 0.00 | 0.00 | 0.00 | 99 | 981.8 |
| 20260509035922 | 8 | 283 | 0.0 | 0.0 | 0.00 | 0.89 | 0.89 | 99 | 982.1 |
| 20260509035419 | 8 | 282 | 0.0 | 0.0 | 0.00 | 0.89 | 0.89 | 99 | 982.0 |
| 20260509034916 | 8 | 283 | 0.0 | 0.0 | 0.18 | 0.89 | 0.89 | 98 | 982.3 |
| 20260509034414 | 8 | 283 | 0.0 | 0.0 | 0.18 | 0.89 | 0.89 | 98 | 982.4 |
| 20260509033911 | 8 | 282 | 0.0 | 0.0 | 0.13 | 0.86 | 0.86 | 98 | 982.4 |
| 20260509033408 | 8 | 282 | 0.0 | 0.0 | 0.13 | 0.86 | 0.86 | 98 | 982.2 |
| 20260509032904 | 9 | 284 | 0.0 | 0.0 | 0.18 | 0.84 | 0.84 | 98 | 982.2 |
| 20260509032401 | 9 | 281 | 0.0 | 0.0 | 0.18 | 0.84 | 0.84 | 98 | 982.4 |
| 20260509031900 | 8 | 273 | 3.2 | 3.2 | 0.00 | 0.81 | 0.81 | 98 | 982.6 |
| 20260509031356 | 8 | 284 | 0.0 | 0.0 | 0.00 | 0.81 | 0.81 | 98 | 982.4 |
| 20260509030854 | 8 | 276 | 0.0 | 1.6 | 0.18 | 0.81 | 0.81 | 98 | 982.4 |
| 20260509030352 | 8 | 285 | 0.0 | 1.6 | 0.18 | 0.81 | 0.81 | 98 | 982.4 |
| 20260509025849 | 8 | 276 | 0.0 | 0.0 | 0.13 | 0.79 | 0.79 | 98 | 982.4 |
| 20260509025344 | 9 | 282 | 0.0 | 0.0 | 0.13 | 0.79 | 0.79 | 98 | 982.6 |
| 20260509024839 | 9 | 252 | 1.6 | 3.2 | 0.18 | 0.76 | 0.76 | 98 | 982.4 |
| 20260509024336 | 9 | 284 | 0.0 | 1.6 | 0.18 | 0.76 | 0.76 | 98 | 982.4 |
| 20260509023833 | 8 | 281 | 0.0 | 3.2 | 0.00 | 0.74 | 0.74 | 98 | 982.6 |
| 20260509023331 | 9 | 283 | 0.0 | 1.6 | 0.13 | 0.74 | 0.74 | 98 | 982.9 |
| 20260509022827 | 8 | 281 | 0.0 | 0.0 | 0.30 | 0.74 | 0.74 | 98 | 983.0 |
| 20260509022324 | 8 | 281 | 0.0 | 0.0 | 0.30 | 0.71 | 0.71 | 98 | 983.1 |
| 20260509021821 | 8 | 281 | 0.0 | 0.0 | 0.13 | 0.69 | 0.69 | 98 | 983.2 |
| 20260509021318 | 8 | 281 | 0.0 | 0.0 | 0.18 | 0.66 | 0.66 | 98 | 982.9 |
| 20260509020816 | 8 | 282 | 0.0 | 1.6 | 0.13 | 0.64 | 0.64 | 98 | 983.2 |
| 20260509020314 | 8 | 284 | 0.0 | 0.0 | 0.13 | 0.64 | 0.64 | 98 | 982.9 |
| 20260509015811 | 8 | 279 | 0.0 | 0.0 | 0.18 | 0.61 | 0.61 | 98 | 983.0 |
| 20260509015309 | 8 | 278 | 0.0 | 0.0 | 0.18 | 0.61 | 0.61 | 98 | 982.8 |
| 20260509014805 | 8 | 276 | 0.0 | 0.0 | 0.13 | 0.58 | 0.58 | 98 | 982.9 |
| 20260509014303 | 8 | 276 | 0.0 | 0.0 | 0.30 | 0.58 | 0.58 | 97 | 982.8 |
| 20260509013759 | 8 | 282 | 0.0 | 0.0 | 0.18 | 0.56 | 0.56 | 97 | 982.7 |
| 20260509013255 | 8 | 282 | 0.0 | 0.0 | 0.13 | 0.53 | 0.53 | 97 | 982.6 |
| 20260509012751 | 8 | 278 | 0.0 | 0.0 | 0.18 | 0.51 | 0.51 | 97 | 982.8 |
| 20260509012248 | 8 | 277 | 0.0 | 0.0 | 0.18 | 0.48 | 0.48 | 97 | 982.8 |
| 20260509011745 | 8 | 277 | 0.0 | 0.0 | 0.30 | 0.48 | 0.48 | 97 | 982.4 |
| 20260509011243 | 8 | 278 | 0.0 | 0.0 | 0.30 | 0.46 | 0.46 | 97 | 982.4 |
| 20260509010740 | 8 | 277 | 0.0 | 0.0 | 0.30 | 0.43 | 0.43 | 97 | 982.4 |
| 20260509010237 | 8 | 276 | 0.0 | 0.0 | 0.30 | 0.41 | 0.41 | 96 | 982.3 |
| 20260509005734 | 8 | 278 | 0.0 | 0.0 | 0.30 | 0.38 | 0.38 | 96 | 982.3 |
| 20260509005232 | 8 | 278 | 0.0 | 0.0 | 0.30 | 0.36 | 0.36 | 96 | 982.1 |
| 20260509004725 | 8 | 278 | 0.0 | 0.0 | 0.18 | 0.33 | 0.33 | 96 | 982.1 |
| 20260509004224 | 8 | 277 | 0.0 | 0.0 | 0.13 | 0.30 | 0.30 | 96 | 982.2 |
| 20260509003722 | 9 | 276 | 0.0 | 0.0 | 0.13 | 0.30 | 0.30 | 95 | 982.1 |
| 20260509003219 | 9 | 282 | 0.0 | 0.0 | 0.18 | 0.28 | 0.28 | 95 | 982.1 |
| 20260509002716 | 9 | 282 | 0.0 | 0.0 | 0.30 | 0.28 | 0.28 | 94 | 982.0 |
| 20260509002214 | 9 | 283 | 0.0 | 0.0 | 0.30 | 0.25 | 0.25 | 94 | 981.9 |
| 20260509001711 | 9 | 283 | 0.0 | 0.0 | 0.18 | 0.23 | 0.23 | 93 | 982.1 |
| 20260509001207 | 9 | 277 | 0.0 | 0.0 | 0.18 | 0.20 | 0.20 | 92 | 982.0 |
| 20260509000705 | 9 | 283 | 0.0 | 1.6 | 0.30 | 0.20 | 0.20 | 91 | 981.9 |